STARLINK-6049, 56796

Orbit data source: Space-Track

STARLINK-6049, 56796 is a payload satellite owned by SpaceX/Seattle (US) in LEO that was launched on Wed, 31 May 2023 UTC via an FALCON 9 launch vehicle from the Air Force Western Test Range (AFWTR). Payload-class satellites include a variety of spacecraft equipped with specific instruments for various scientific and technological missions. These include communications satellites like Starlink; space stations such as the ISS; scientific satellites like the Hubble; Earth observation satellites from companies like Planet Labs, Umbra, and HawkEye 360; GPS; miniature CubeSats for education and research; and military/defense satellites.

Loading next visibility...
Identifier
56796, 2023-078AF
Orbit
LEO
Country
Flag of USUS
Related business
Manufacturer
SpaceX/Seattle
Mission
Operational Commercial Communications
Bus & Motor
STARLINK, Unknown motor
Mass
305 kg wet, ~290 kg dry
Launch date (UTC)
2023-05-31 (3 years ago)
Launch vehicle
FALCON 9
Launch site
Air Force Western Test Range (AFWTR)
Object type
Payload
Rocket body
Debris
Shape & HBR
Box + 1 Pan, 10.1 m
Radar Cross Section
11.087 m², Large (>1 m²)

Expand to show TLE details & history
Last TLE update: 2 days ago

TLE from 2 days ago
0 STARLINK-6049
1 56796U 23078AF  26171.20567242  .00004597  00000-0  39249-3 0  9993
2 56796  70.0011  86.0782 0002439 266.7247  93.3633 14.98362156168037
Epoch: 2026-06-20T04:56Z
TLE epoch observation values (Epoch: 2026-06-20T04:56:10.097Z)
Latitude
-0.00001°
Longitude
103.61249°
Altitude
574.48 km
Speed
7.574 km/s
True Right ascension
05h 44m 18s
True Declination
0° 00' 00"
Sunlit
Object was in daylight at epoch
Visualization orbit readout
Latitude
Unknown
Longitude
Unknown
Altitude
Unknown
Speed
Unknown
Apparent Right ascension
Unknown
Apparent Declination
Unknown
Sunlit
N/A
Visualization observer readout
Local Sidereal Time
21:49:03
Azimuth
Unknown
Elevation
Unknown
Doppler factor
Unknown
Orbital elements
Apogee altitude
571.599 km
Perigee altitude
568.21 km
Semi-major axis
6,948.042 km
Eccentricity
0.00024
Inclination
70.0011°
RAAN
86.0782°
Arg. of periapsis
266.7247°
True anomaly
93.3912°
Mean anomaly
93.3633°
Eccentric anomaly
93.37725°
Mean motion
3.74757 °/min
Orbital period
96.06 mins
BSTAR
0.00039249
Loading maneuver chart data...
Computing Atmospheric mass density...

Documentation

Showing up to 5 results
|